OE3BCB-14 Weather Reports


Display with metric or nautical units.
time (UTC)temp
F
wind
direction
speed
MPH
gust
MPH
rain 1hr
in
rain 24hr
in
rain mn
in
humidity
%
barometer
mb
20260507174612 67 270 1.0 19.0 0.00 0.00 0.00 37 1015.6
20260507174110 68 180 0.0 24.0 0.00 0.00 0.00 37 1015.6
20260507173608 68 180 2.0 20.0 0.00 0.00 0.00 36 1015.5
20260507173105 68 180 2.0 24.0 0.00 0.00 0.00 36 1015.4
20260507172603 68 270 1.0 23.0 0.00 0.00 0.00 36 1015.4
20260507172100 68 225 3.0 16.0 0.00 0.00 0.00 35 1015.3
20260507171558 68 180 1.0 22.0 0.00 0.00 0.00 35 1015.2
20260507171056 69 180 1.0 8.0 0.00 0.00 0.00 35 1015.1
20260507170553 69 180 2.0 2.0 0.00 0.00 0.00 34 1015.0
20260507170051 69 180 1.0 44.0 0.00 0.00 0.00 34 1015.0
20260507165548 69 135 3.0 20.0 0.00 0.00 0.00 34 1014.9
20260507165046 70 180 19.0 20.0 0.00 0.00 0.00 34 1014.9
20260507164543 70 225 2.0 22.0 0.00 0.00 0.00 34 1014.8
20260507164041 70 180 0.0 22.0 0.00 0.00 0.00 33 1014.8
20260507163539 70 180 0.0 4.0 0.00 0.00 0.00 33 1014.8
20260507163036 70 180 1.0 21.0 0.00 0.00 0.00 33 1014.6
20260507162534 71 225 1.0 22.0 0.00 0.00 0.00 33 1014.6
20260507162031 71 180 1.0 19.0 0.00 0.00 0.00 32 1014.6
20260507161529 71 180 3.0 19.0 0.00 0.00 0.00 32 1014.6
20260507161027 72 180 4.0 25.0 0.00 0.00 0.00 32 1014.5
20260507160524 72 225 4.0 23.0 0.00 0.00 0.00 32 1014.5
20260507160022 73 225 1.0 25.0 0.00 0.00 0.00 32 1014.5
20260507155519 72 225 4.0 24.0 0.00 0.00 0.00 32 1014.4
20260507155017 72 180 7.0 31.0 0.00 0.00 0.00 31 1014.3
20260507154514 73 180 2.0 22.0 0.00 0.00 0.00 31 1014.5
20260507154012 73 180 2.0 32.0 0.00 0.00 0.00 31 1014.5
20260507153510 73 225 2.0 22.0 0.00 0.00 0.00 31 1014.5
20260507153007 73 225 1.0 21.0 0.00 0.00 0.00 31 1014.5
20260507152505 73 225 2.0 16.0 0.00 0.00 0.00 31 1014.3
20260507152002 73 180 1.0 21.0 0.00 0.00 0.00 30 1014.2
20260507151500 74 180 1.0 20.0 0.00 0.00 0.00 30 1014.1
20260507150455 74 225 2.0 7.0 0.00 0.00 0.00 30 1014.2
20260507145953 75 225 2.0 21.0 0.00 0.00 0.00 30 1014.1
20260507145450 75 180 1.0 22.0 0.00 0.00 0.00 30 1014.2
20260507144948 75 225 2.0 20.0 0.00 0.00 0.00 30 1014.1
20260507144446 75 180 2.0 20.0 0.00 0.00 0.00 30 1014.1
20260507143441 74 180 0.0 22.0 0.00 0.00 0.00 30 1014.2
20260507142938 74 180 2.0 23.0 0.00 0.00 0.00 29 1014.2
20260507142436 75 225 9.0 20.0 0.00 0.00 0.00 29 1014.1
20260507141933 75 225 23.0 23.0 0.00 0.00 0.00 29 1014.2
20260507141431 76 180 1.0 24.0 0.00 0.00 0.00 29 1014.1
20260507140929 78 225 0.0 11.0 0.00 0.00 0.00 28 1014.1
20260507135924 81 270 0.0 17.0 0.00 0.00 0.00 29 1014.0
20260507135421 78 225 0.0 20.0 0.00 0.00 0.00 28 1014.1
20260507134919 80 180 1.0 20.0 0.00 0.00 0.00 27 1014.0
20260507134417 79 225 0.0 23.0 0.00 0.00 0.00 29 1014.0
20260507133914 79 180 1.0 22.0 0.00 0.00 0.00 28 1014.0
20260507133412 81 180 3.0 22.0 0.00 0.00 0.00 28 1014.1
20260507132909 78 270 1.0 23.0 0.00 0.00 0.00 28 1014.0
20260507132407 79 225 1.0 21.0 0.00 0.00 0.00 29 1014.1
20260507131906 79 225 14.0 21.0 0.00 0.00 0.00 28 1014.2
20260507131402 80 315 0.0 20.0 0.00 0.00 0.00 28 1014.3
20260507130900 81 225 0.0 21.0 0.00 0.00 0.00 28 1014.3
20260507130357 87 225 10.0 17.0 0.00 0.00 0.00 26 1014.4
20260507125855 84 180 1.0 6.0 0.00 0.00 0.00 29 1014.3
20260507125352 81 180 2.0 23.0 0.00 0.00 0.00 28 1014.3
20260507124850 85 315 0.0 21.0 0.00 0.00 0.00 28 1014.3
20260507124348 88 270 2.0 15.0 0.00 0.00 0.00 27 1014.3
20260507123845 84 0 2.0 18.0 0.00 0.00 0.00 29 1014.4
20260507123343 78 225 1.0 22.0 0.00 0.00 0.00 30 1014.4
20260507122840 79 225 4.0 18.0 0.00 0.00 0.00 29 1014.4
20260507122338 81 0 0.0 8.0 0.00 0.00 0.00 29 1014.5
20260507121836 79 225 0.0 21.0 0.00 0.00 0.00 30 1014.5
20260507121333 80 270 1.0 22.0 0.00 0.00 0.00 32 1014.6
20260507120831 79 180 1.0 22.0 0.00 0.00 0.00 30 1014.5
20260507120328 82 270 1.0 16.0 0.00 0.00 0.00 29 1014.6
20260507115826 85 225 2.0 18.0 0.00 0.00 0.00 30 1014.6
20260507115323 85 225 0.0 26.0 0.00 0.00 0.00 31 1014.7
20260507114821 84 225 2.0 15.0 0.00 0.00 0.00 31 1014.7
20260507114319 83 225 2.0 17.0 0.00 0.00 0.00 31 1014.9
20260507113816 84 0 0.0 20.0 0.00 0.00 0.00 33 1014.8
20260507113314 84 180 2.0 20.0 0.00 0.00 0.00 32 1014.9
20260507112811 82 315 1.0 20.0 0.00 0.00 0.00 33 1014.9
20260507112309 80 225 3.0 12.0 0.00 0.00 0.00 33 1014.8
20260507111807 80 180 1.0 23.0 0.00 0.00 0.00 34 1015.0
20260507111304 76 225 3.0 6.0 0.00 0.00 0.00 34 1015.0
20260507110802 74 225 2.0 7.0 0.00 0.00 0.00 34 1015.1
20260507110259 74 180 7.0 21.0 0.00 0.00 0.00 34 1015.1
20260507105757 74 180 3.0 22.0 0.00 0.00 0.00 35 1015.1
20260507105255 74 225 12.0 23.0 0.00 0.00 0.00 35 1015.2
20260507104752 74 180 3.0 25.0 0.00 0.00 0.00 35 1015.2
20260507104250 74 225 4.0 20.0 0.00 0.00 0.00 35 1015.3
20260507103747 76 270 5.0 42.0 0.00 0.00 0.00 34 1015.4
20260507103245 77 270 2.0 20.0 0.00 0.00 0.00 35 1015.4
20260507102742 79 225 2.0 18.0 0.00 0.00 0.00 37 1015.5
20260507102240 74 180 1.0 23.0 0.00 0.00 0.00 37 1015.6
20260507101235 72 225 2.0 24.0 0.00 0.00 0.00 36 1015.5
20260507100733 72 225 9.0 22.0 0.00 0.00 0.00 37 1015.6
20260507100230 73 225 37.0 37.0 0.00 0.00 0.00 37 1015.6
20260507095728 73 270 2.0 25.0 0.00 0.00 0.00 36 1015.5
20260507095226 75 180 0.0 19.0 0.00 0.00 0.00 37 1015.4
20260507094723 74 315 1.0 21.0 0.00 0.00 0.00 37 1015.4
20260507094221 73 225 3.0 24.0 0.00 0.00 0.00 38 1015.5
20260507093718 73 225 3.0 27.0 0.00 0.00 0.00 38 1015.5
20260507093216 73 0 1.0 22.0 0.00 0.00 0.00 38 1015.5
20260507092714 73 225 0.0 26.0 0.00 0.00 0.00 38 1015.6
20260507092211 73 180 4.0 26.0 0.00 0.00 0.00 38 1015.4
20260507091709 74 180 24.0 24.0 0.00 0.00 0.00 39 1015.6
20260507091206 74 225 22.0 23.0 0.00 0.00 0.00 40 1015.6
20260507090704 71 315 1.0 23.0 0.00 0.00 0.00 40 1015.4
20260507090201 71 225 2.0 25.0 0.00 0.00 0.00 39 1015.4
20260507085659 72 225 2.0 25.0 0.00 0.00 0.00 40 1015.4
20260507085157 73 270 1.0 24.0 0.00 0.00 0.00 39 1015.3
20260507084654 74 225 1.0 17.0 0.00 0.00 0.00 42 1015.2
20260507084152 71 180 25.0 25.0 0.00 0.00 0.00 42 1015.1
20260507083650 71 180 2.0 23.0 0.00 0.00 0.00 41 1015.1
20260507083147 71 135 3.0 25.0 0.00 0.00 0.00 41 1015.1
20260507082645 72 180 1.0 23.0 0.00 0.00 0.00 43 1015.0
20260507082142 71 180 1.0 23.0 0.00 0.00 0.00 43 1015.0
20260507081640 70 225 1.0 21.0 0.00 0.00 0.00 43 1015.0
20260507081137 70 225 1.0 26.0 0.00 0.00 0.00 44 1015.0
20260507080635 69 225 4.0 29.0 0.00 0.00 0.00 44 1014.9
20260507080133 69 315 3.0 42.0 0.00 0.00 0.00 44 1015.0
20260507075630 68 270 2.0 27.0 0.00 0.00 0.00 44 1014.9
20260507075128 68 270 5.0 45.0 0.00 0.00 0.00 44 1014.8
20260507074625 68 225 2.0 24.0 0.00 0.00 0.00 45 1014.9
20260507074123 67 180 3.0 26.0 0.00 0.00 0.00 45 1015.0
20260507073620 67 225 5.0 26.0 0.00 0.00 0.00 45 1014.8
20260507073118 67 270 0.0 24.0 0.00 0.00 0.00 46 1014.9
20260507072616 67 225 2.0 23.0 0.00 0.00 0.00 46 1014.8
20260507072113 67 225 3.0 27.0 0.00 0.00 0.00 45 1014.7
20260507071611 67 270 2.0 45.0 0.00 0.00 0.00 46 1014.6
20260507071108 67 225 1.0 25.0 0.00 0.00 0.00 46 1014.7
20260507070606 67 180 3.0 26.0 0.00 0.00 0.00 46 1014.5
20260507070104 67 225 1.0 27.0 0.00 0.00 0.00 47 1014.5
20260507065601 67 180 5.0 30.0 0.00 0.00 0.00 46 1014.5
20260507065059 67 225 3.0 29.0 0.00 0.00 0.00 47 1014.6
20260507064556 67 180 23.0 24.0 0.00 0.00 0.00 48 1014.6
20260507064054 66 225 11.0 32.0 0.00 0.00 0.00 48 1014.6
20260507063552 65 225 5.0 42.0 0.00 0.00 0.00 48 1014.5
20260507063049 65 180 2.0 24.0 0.00 0.00 0.00 48 1014.5
20260507062547 65 180 1.0 23.0 0.00 0.00 0.00 49 1014.5
20260507062044 64 180 2.0 29.0 0.00 0.00 0.00 49 1014.3
20260507061542 64 225 2.0 26.0 0.00 0.00 0.00 49 1014.3
20260507061039 64 180 5.0 29.0 0.00 0.00 0.00 49 1014.2
20260507060537 63 225 1.0 24.0 0.00 0.00 0.00 49 1014.3
20260507060035 63 225 17.0 46.0 0.00 0.00 0.00 49 1014.3
20260507055532 63 180 2.0 18.0 0.00 0.00 0.00 49 1014.3
20260507055030 63 225 1.0 24.0 0.00 0.00 0.00 49 1014.2
20260507054527 63 180 1.0 11.0 0.00 0.00 0.00 49 1014.2
20260507054025 63 180 0.0 26.0 0.00 0.00 0.00 50 1014.1
20260507053523 63 180 2.0 23.0 0.00 0.00 0.00 50 1014.0
20260507053020 63 225 2.0 44.0 0.00 0.00 0.00 50 1013.9
20260507052518 63 180 1.0 27.0 0.00 0.00 0.00 50 1013.9
20260507052015 63 225 3.0 26.0 0.00 0.00 0.00 50 1013.8
20260507051513 63 225 17.0 25.0 0.00 0.00 0.00 50 1013.9
20260507051010 63 180 2.0 25.0 0.00 0.00 0.00 50 1013.9
20260507050508 63 225 1.0 22.0 0.00 0.00 0.00 50 1013.8
20260507050006 63 315 0.0 27.0 0.00 0.00 0.00 50 1013.8
20260507045503 63 180 0.0 1.0 0.00 0.00 0.00 50 1013.8
20260507045001 62 180 0.0 23.0 0.00 0.00 0.00 50 1013.8
20260507044458 62 315 0.0 24.0 0.00 0.00 0.00 50 1013.6
20260507043956 62 180 0.0 26.0 0.00 0.00 0.00 50 1013.6
20260507043454 62 225 1.0 23.0 0.00 0.00 0.00 50 1013.7
20260507042951 62 315 0.0 2.0 0.00 0.00 0.00 50 1013.6
20260507042449 62 180 0.0 11.0 0.00 0.00 0.00 50 1013.5
20260507041946 61 180 0.0 29.0 0.00 0.00 0.00 50 1013.5
20260507041444 61 180 0.0 23.0 0.00 0.00 0.00 50 1013.4
20260507040942 61 225 2.0 25.0 0.00 0.00 0.00 50 1013.3
20260507040439 61 225 1.0 22.0 0.00 0.00 0.00 50 1013.2
20260507035937 61 225 2.0 2.0 0.00 0.00 0.00 50 1013.1
20260507035434 61 180 0.0 2.0 0.00 0.00 0.00 50 1013.1
20260507034932 61 180 0.0 23.0 0.00 0.00 0.00 50 1013.1
20260507034429 61 180 6.0 23.0 0.00 0.00 0.00 50 1013.1
20260507033927 61 180 0.0 19.0 0.00 0.00 0.00 50 1013.0
20260507033425 61 180 0.0 26.0 0.00 0.00 0.00 50 1013.0
20260507032922 61 135 0.0 23.0 0.00 0.00 0.00 50 1012.9
20260507032420 61 225 1.0 33.0 0.00 0.00 0.00 50 1012.9
20260507031917 61 315 0.0 25.0 0.00 0.00 0.00 50 1012.8
20260507031415 62 225 1.0 24.0 0.00 0.00 0.00 50 1012.7
20260507030913 62 180 1.0 17.0 0.00 0.00 0.00 50 1012.7
20260507030410 62 180 1.0 28.0 0.00 0.00 0.00 50 1012.7
20260507025908 62 225 0.0 25.0 0.00 0.00 0.00 50 1012.6
20260507024903 62 180 0.0 29.0 0.00 0.00 0.00 50 1012.6
20260507024401 62 180 4.0 23.0 0.00 0.00 0.00 50 1012.5
20260507023858 62 225 1.0 30.0 0.00 0.00 0.00 50 1012.5
20260507023356 62 180 4.0 28.0 0.00 0.00 0.00 50 1012.5
20260507022853 62 225 6.0 25.0 0.00 0.00 0.00 50 1012.5
20260507022351 63 225 2.0 27.0 0.00 0.00 0.00 50 1012.4
20260507021848 63 180 3.0 29.0 0.00 0.00 0.00 50 1012.4
20260507021346 63 225 4.0 26.0 0.00 0.00 0.00 50 1012.4
20260507020844 62 225 2.0 21.0 0.00 0.00 0.00 50 1012.4
20260507020341 62 180 1.0 26.0 0.00 0.00 0.00 50 1012.3
20260507015839 62 180 1.0 26.0 0.00 0.00 0.00 50 1012.3
20260507015336 62 225 1.0 27.0 0.00 0.00 0.00 50 1012.3
20260507014834 63 180 1.0 28.0 0.00 0.00 0.00 51 1012.3
20260507014332 63 225 2.0 28.0 0.00 0.00 0.00 51 1012.2
20260507013829 63 180 1.0 22.0 0.00 0.00 0.00 51 1012.3
20260507012824 63 180 0.0 31.0 0.00 0.00 0.00 51 1012.1
20260507012322 63 225 0.0 27.0 0.00 0.00 0.00 51 1012.1
20260507011820 63 225 3.0 27.0 0.00 0.00 0.00 51 1012.1
20260507011317 63 180 1.0 23.0 0.00 0.00 0.00 51 1012.1
20260507010815 63 225 2.0 36.0 0.00 0.00 0.00 51 1011.9
20260507010312 63 225 3.0 29.0 0.00 0.00 0.00 51 1011.8
20260507005810 63 180 1.0 24.0 0.00 0.00 0.00 51 1011.7
20260507005308 63 225 4.0 50.0 0.00 0.00 0.00 50 1011.5
20260507004805 63 225 3.0 27.0 0.00 0.00 0.00 50 1011.5
20260507004303 63 225 7.0 32.0 0.00 0.00 0.00 50 1011.5
20260507003800 64 225 1.0 23.0 0.00 0.00 0.00 50 1011.6
20260507003258 64 225 7.0 26.0 0.00 0.00 0.00 50 1011.7
20260507002755 64 180 3.0 26.0 0.00 0.00 0.00 50 1011.8
20260507002253 64 225 3.0 26.0 0.00 0.00 0.00 50 1011.9
20260507001751 64 225 5.0 31.0 0.00 0.00 0.00 50 1011.8
20260507001248 64 180 2.0 27.0 0.00 0.00 0.00 50 1011.8
20260507000746 64 225 3.0 27.0 0.00 0.00 0.00 50 1011.8
20260507000243 64 180 5.0 22.0 0.00 0.00 0.00 50 1011.6
20260506235741 64 225 4.0 27.0 0.00 0.00 0.00 50 1011.6
20260506235239 64 0 2.0 29.0 0.00 0.00 0.00 50 1011.3
20260506234736 64 225 3.0 28.0 0.00 0.00 0.00 50 1011.3
20260506234234 64 225 2.0 27.0 0.00 0.00 0.00 50 1011.2
20260506233731 64 225 3.0 37.0 0.00 0.00 0.00 50 1011.1
20260506233229 64 180 2.0 26.0 0.00 0.00 0.00 49 1010.9
20260506232726 65 180 2.0 32.0 0.00 0.00 0.00 49 1011.0
20260506232224 65 225 1.0 50.0 0.00 0.00 0.00 49 1010.9
20260506231219 65 180 5.0 47.0 0.00 0.00 0.00 49 1010.6
20260506230717 65 180 9.0 41.0 0.00 0.00 0.00 49 1010.6
20260506230214 66 225 2.0 29.0 0.00 0.00 0.00 49 1010.6
20260506225712 66 225 8.0 27.0 0.00 0.00 0.00 49 1010.4
20260506225210 66 180 4.0 54.0 0.00 0.00 0.00 48 1010.3
20260506224707 66 180 5.0 31.0 0.00 0.00 0.00 48 1010.3
20260506224205 66 180 5.0 33.0 0.00 0.00 0.00 48 1010.3
20260506223702 66 225 3.0 41.0 0.00 0.00 0.00 47 1010.2
20260506223200 66 180 1.0 28.0 0.00 0.00 0.00 46 1010.2
20260506222658 66 180 4.0 28.0 0.00 0.00 0.00 46 1009.9
20260506222155 66 180 4.0 28.0 0.00 0.00 0.00 45 1009.8
20260506221653 66 225 28.0 28.0 0.00 0.00 0.00 45 1009.9
20260506221150 66 180 1.0 27.0 0.00 0.00 0.00 44 1009.7
20260506220648 67 225 1.0 40.0 0.00 0.00 0.00 43 1009.7
20260506220145 67 180 0.0 36.0 0.00 0.00 0.00 43 1009.5
20260506215643 67 225 2.0 27.0 0.00 0.00 0.00 42 1009.3
20260506215141 67 225 3.0 33.0 0.00 0.00 0.00 42 1009.1
20260506214638 68 225 5.0 28.0 0.00 0.00 0.00 41 1009.0
20260506214136 68 180 2.0 15.0 0.00 0.00 0.00 41 1009.1
20260506213633 68 225 6.0 25.0 0.00 0.00 0.00 40 1008.9
20260506213131 68 225 5.0 26.0 0.00 0.00 0.00 40 1008.8
20260506212629 68 225 3.0 28.0 0.00 0.00 0.00 39 1008.7
20260506212126 69 180 2.0 49.0 0.00 0.00 0.00 39 1008.5
20260506211624 69 180 1.0 31.0 0.00 0.00 0.00 38 1008.4
20260506211121 69 225 2.0 23.0 0.00 0.00 0.00 37 1008.4
20260506210619 70 180 4.0 29.0 0.00 0.00 0.00 37 1008.2
20260506210117 70 270 2.0 27.0 0.00 0.00 0.00 37 1008.0
20260506205614 68 0 0.0 14.0 0.00 0.00 0.00 37 1007.8
20260506205112 68 225 0.0 8.0 0.00 0.00 0.00 36 1007.6
20260506204609 68 180 0.0 3.0 0.00 0.00 0.00 36 1007.4
20260506204107 69 180 0.0 6.0 0.00 0.00 0.00 36 1007.3
20260506203605 69 180 0.0 0.0 0.00 0.00 0.00 35 1007.2
20260506203102 69 180 0.0 0.0 0.00 0.00 0.00 35 1007.0
20260506202600 69 180 0.0 0.0 0.00 0.00 0.00 35 1006.9
20260506202057 69 180 0.0 1.0 0.00 0.00 0.00 34 1006.9
20260506201555 70 180 0.0 0.0 0.00 0.00 0.00 34 1006.8
20260506201052 70 180 0.0 0.0 0.00 0.00 0.00 34 1006.9
20260506200550 71 180 0.0 0.0 0.00 0.00 0.00 33 1006.9
20260506200048 71 180 0.0 1.0 0.00 0.00 0.00 33 1006.7
20260506195545 71 180 0.0 0.0 0.00 0.00 0.00 33 1006.7
20260506195043 72 180 0.0 0.0 0.00 0.00 0.00 33 1006.6
20260506194540 72 180 0.0 24.0 0.00 0.00 0.00 33 1006.6
20260506194038 72 225 0.0 22.0 0.00 0.00 0.00 33 1006.5
20260506193536 72 225 0.0 1.0 0.00 0.00 0.00 32 1006.4
20260506193033 72 180 9.0 22.0 0.00 0.00 0.00 32 1006.3
20260506192531 72 180 0.0 1.0 0.00 0.00 0.00 32 1006.2
20260506192028 73 180 0.0 1.0 0.00 0.00 0.00 32 1006.2
20260506191526 72 180 0.0 0.0 0.00 0.00 0.00 32 1006.1
20260506191024 73 180 0.0 0.0 0.00 0.00 0.00 31 1006.0
20260506190521 73 180 0.0 1.0 0.00 0.00 0.00 31 1006.0
20260506190019 73 180 0.0 1.0 0.00 0.00 0.00 31 1005.9
20260506185516 73 180 0.0 0.0 0.00 0.00 0.00 30 1005.8
20260506185014 74 180 0.0 0.0 0.00 0.00 0.00 30 1005.8
20260506184511 74 180 0.0 0.0 0.00 0.00 0.00 30 1005.7
20260506184009 74 180 0.0 0.0 0.00 0.00 0.00 1005.7
20260506183507 74 45 0.0 24.0 0.00 0.00 0.00 30 1005.6
20260506183005 75 45 0.0 1.0 0.00 0.00 0.00 30 1005.6
20260506182502 75 180 0.0 1.0 0.00 0.00 0.00 29 1005.5
20260506181959 75 180 0.0 24.0 0.00 0.00 0.00 29 1005.3
20260506181457 75 270 0.0 24.0 0.00 0.00 0.00 29 1005.3
20260506180955 75 270 0.0 8.0 0.00 0.00 0.00 29 1005.3
20260506180452 76 0 0.0 23.0 0.00 0.00 0.00 28 1005.3
20260506175950 76 225 0.0 23.0 0.00 0.00 0.00 28 1005.3
20260506175447 77 270 0.0 0.0 0.00 0.00 0.00 28 1005.2
20260506174945 77 180 0.0 2.0 0.00 0.00 0.00 27 1005.1